This is the latest recevied weather packets stored in our database for station/object AG7BI. If no packets are shown the sender has not sent any weather packets the latest 10 day(s).
| Time | Temp. | Humidity | Pressure | Rain* | Wind** | Luminosity | Snow |
|---|---|---|---|---|---|---|---|
| 1777769752 | 19.44° C | 48% | 1013.6 hPa | 0 mm | - | - | - |
| 1777769452 | 19.44° C | 46% | 1013.8 hPa | 0 mm | - | - | - |
| 1777769152 | 19.44° C | 48% | 1014 hPa | 0 mm | - | - | - |
| 1777768852 | 19.44° C | 51% | 1013.8 hPa | 0 mm | - | - | - |
| 1777768552 | 19.44° C | 48% | 1013.8 hPa | 0 mm | - | - | - |
| 1777768252 | 19.44° C | 49% | 1013.8 hPa | 0 mm | - | - | - |
| 1777767952 | 19.44° C | 50% | 1014 hPa | 0 mm | - | - | - |
| 1777767652 | 19.44° C | 48% | 1013.7 hPa | 0 mm | - | - | - |
| 1777767352 | 19.44° C | 49% | 1013.9 hPa | 0 mm | - | - | - |
| 1777767052 | 19.44° C | 50% | 1014.1 hPa | 0 mm | - | - | - |
| 1777766752 | 18.89° C | 50% | 1013.9 hPa | 0 mm | - | - | - |
| 1777766452 | 18.89° C | 49% | 1014 hPa | 0 mm | - | - | - |
| 1777766152 | 18.89° C | 49% | 1013.9 hPa | 0 mm | - | - | - |
| 1777765852 | 18.89° C | 49% | 1014 hPa | 0 mm | - | - | - |
| 1777765552 | 18.89° C | 49% | 1014.3 hPa | 0 mm | - | - | - |
| 1777765252 | 18.89° C | 53% | 1014.1 hPa | 0 mm | - | - | - |
| 1777764952 | 18.89° C | 51% | 1014.3 hPa | 0 mm | - | - | - |
| 1777764652 | 18.33° C | 53% | 1014.3 hPa | 0 mm | - | - | - |
| 1777764352 | 18.33° C | 55% | 1014.4 hPa | 0 mm | - | - | - |
| 1777764052 | 18.33° C | 53% | 1014.5 hPa | 0 mm | - | - | - |
| 1777763752 | 18.33° C | 53% | 1014.5 hPa | 0 mm | - | - | - |
| 1777763452 | 18.33° C | 54% | 1014.7 hPa | 0 mm | - | - | - |
| 1777763152 | 18.33° C | 56% | 1014.6 hPa | 0 mm | - | - | - |
| 1777762852 | 18.33° C | 55% | 1014.6 hPa | 0 mm | - | - | - |
| 1777762552 | 18.33° C | 55% | 1014.9 hPa | 0 mm | - | - | - |
* Rain latest hour (hover to see other rain measurements)
** Current wind speed in m/s (hover to see current wind gust speed)